TITAN 3C TRANSTAGE DEB, 43517

Orbit data source: Space-Track

TITAN 3C TRANSTAGE DEB, 43517 is space debris in GEO originally from a launch on Sun, 09 Feb 1969 UTC launched from the Air Force Eastern Test Range (AFETR). Debris objects in space refer to the collection of defunct objects orbiting the Earth. Examples of debris include non-operational satellites, rocket bodies, and fragments generated from explosions, collisions, or faulty payload assembly.

Loading next visibility...
Identifier
43517, 1969-013V
Orbit
GEO
Country
Flag of USUS
Related business
Manufacturer
Martin Marietta
Mission
Spacecraft
Bus & Motor
Unknown
Mass
Unknown
Launch date (UTC)
1969-02-09 (58 years ago)
Launch vehicle
Unknown
Launch site
Air Force Eastern Test Range (AFETR)
Object type
Payload
Rocket body
Debris
Shape & HBR
Unknown shape, 1.1 m
Radar Cross Section
Medium (>0.1 m² and <1 m²)

Expand to show TLE details & history
Last TLE update: 1 week ago

TLE from 1 week ago
0 TITAN 3C TRANSTAGE DEB
1 43517U 69013V   26246.90649925 -.00000130  00000-0  00000-0 0  9998
2 43517   1.5375 103.2372 0074574 178.3913 182.1337  0.94323557 28597
Epoch: 2026-09-03T21:45Z
TLE epoch observation values (Epoch: 2026-09-03T21:45:21.535Z)
Latitude
-0°
Longitude
154.34679°
Altitude
37,867.352 km
Speed
2.99 km/s
True Right ascension
06h 54m 53s
True Declination
0° 00' 00"
Sunlit
Object was in daylight at epoch
Visualization orbit readout
Latitude
Unknown
Longitude
Unknown
Altitude
Unknown
Speed
Unknown
Apparent Right ascension
Unknown
Apparent Declination
Unknown
Sunlit
N/A
Visualization observer readout
Local Sidereal Time
11:15:25
Azimuth
Unknown
Elevation
Unknown
Doppler factor
Unknown
Orbital elements
Apogee altitude
37,869.688 km
Perigee altitude
37,214.625 km
Semi-major axis
43,920.294 km
Eccentricity
0.00746
Inclination
1.5375°
RAAN
103.2372°
Arg. of periapsis
178.3913°
True anomaly
182.10218°
Mean anomaly
182.1337°
Eccentric anomaly
182.11791°
Mean motion
0.2358 °/min
Orbital period
1,526.71 mins
BSTAR
0
Loading maneuver chart data...
Computing Atmospheric mass density...

Documentation

Showing up to 5 results
|